Location: San Vito
(41.8833°N, 12.9833°E)
Time: 21:48:40
(UTC+00:00)

Tsikada Rocket - Pass Details

Date: 17 November 2019
Orbit: 958 x 1009 km, 82.9° (Epoch: 14 December)

Event Time Altitude Azimuth Distance (km) Brightness Sun altitude
Rises 04:37:52 0° 354° (N) 3,744 6.9 -15.2°
Reaches altitude 10° 04:40:26 10° 357° (N) 2,786 6.2 -14.8°
Maximum altitude 04:46:50 71° 81° (E) 1,050 4.4 -13.6°
Drops below altitude 10° 04:53:07 10° 165° (SSE) 2,737 6.7 -12.5°
Sets 04:55:37 0° 168° (SSE) 3,674 7.4 -12.0°
